THORAD AGENA D DEB, 4749

Orbit data source: Space-Track

THORAD AGENA D DEB, 4749 is space debris in SSO originally from a launch on Wed, 08 Apr 1970 UTC launched from the Air Force Western Test Range (AFWTR). Debris objects in space refer to the collection of defunct objects orbiting the Earth. Examples of debris include non-operational satellites, rocket bodies, and fragments generated from explosions, collisions, or faulty payload assembly.

Loading next visibility...
Identifier
4749, 1970-025CX
Orbit
SSO
Country
Flag of USUS
Related business
Manufacturer
Unknown
Mission
Spacecraft
Bus & Motor
Unknown
Mass
Unknown
Launch date (UTC)
1970-04-08 (56 years ago)
Launch vehicle
Unknown
Launch site
Air Force Western Test Range (AFWTR)
Object type
Payload
Rocket body
Debris
Shape & HBR
Unknown shape, 0.1 m
Radar Cross Section
Medium (>0.1 m² and <1 m²)

Expand to show TLE details & history
Last TLE update: 13 hours ago

TLE from 13 hours ago
0 THORAD AGENA D DEB
1 04749U 70025CX  26255.77447043  .00000852  00000-0  77382-3 0  9999
2 04749  98.9974  86.8933 0015497 118.9521 241.3191 13.86208540815486
Epoch: 2026-09-12T18:35Z
TLE epoch observation values (Epoch: 2026-09-12T18:35:14.245Z)
Latitude
-0.00008°
Longitude
176.30531°
Altitude
950.266 km
Speed
7.374 km/s
True Right ascension
05h 47m 34s
True Declination
0° 00' 00"
Sunlit
Object was in daylight at epoch
Visualization orbit readout
Latitude
Unknown
Longitude
Unknown
Altitude
Unknown
Speed
Unknown
Apparent Right ascension
Unknown
Apparent Declination
Unknown
Sunlit
N/A
Visualization observer readout
Local Sidereal Time
23:50:05
Azimuth
Unknown
Elevation
Unknown
Doppler factor
Unknown
Orbital elements
Apogee altitude
950.505 km
Perigee altitude
927.826 km
Semi-major axis
7,317.303 km
Eccentricity
0.00155
Inclination
98.9974°
RAAN
86.8933°
Arg. of periapsis
118.9521°
True anomaly
241.16345°
Mean anomaly
241.3191°
Eccentric anomaly
241.24126°
Mean motion
3.4675 °/min
Orbital period
103.82 mins
BSTAR
0.00077382
Loading maneuver chart data...
Computing Atmospheric mass density...

Documentation

Showing up to 5 results
|